| time (UTC) | temp F | wind direction | speed knots | gust knots | rain 1hr in | rain 24hr in | rain mn in | humidity % | barometer mb |
| 20260510191307 | 63 | 187 | 5.2 | 8.7 | 0.00 | 0.00 | 0.00 | 82 | 1012.3 |
| 20260510190808 | 63 | 175 | 3.5 | 8.7 | 0.00 | 0.00 | 0.00 | 83 | 1012.4 |
| 20260510190308 | 62 | 164 | 3.5 | 7.8 | 0.00 | 0.00 | 0.00 | 84 | 1012.4 |
| 20260510184307 | 62 | 159 | 4.3 | 6.1 | 0.00 | 0.00 | 0.00 | 85 | 1012.3 |
| 20260510183808 | 61 | 157 | 4.3 | 6.1 | 0.00 | 0.00 | 0.00 | 86 | 1012.2 |
| 20260510183308 | 60 | 153 | 4.3 | 8.7 | 0.00 | 0.00 | 0.00 | 87 | 1012.3 |
| 20260510182308 | 59 | 149 | 5.2 | 8.7 | 0.00 | 0.00 | 0.00 | 87 | 1012.4 |
| 20260510181308 | 59 | 148 | 6.1 | 8.7 | 0.00 | 0.00 | 0.00 | 87 | 1012.3 |
| 20260510175808 | 59 | 150 | 5.2 | 7.0 | 0.00 | 0.00 | 0.00 | 87 | 1012.3 |
| 20260510174807 | 59 | 144 | 5.2 | 7.8 | 0.00 | 0.00 | 0.00 | 86 | 1012.5 |
| 20260510173808 | 61 | 149 | 5.2 | 7.8 | 0.00 | 0.00 | 0.00 | 81 | 1012.5 |
| 20260510173307 | 62 | 145 | 2.6 | 5.2 | 0.00 | 0.00 | 0.00 | 80 | 1012.4 |
| 20260510172307 | 62 | 144 | 1.7 | 4.3 | 0.00 | 0.00 | 0.00 | 80 | 1012.3 |
| 20260510170307 | 63 | 107 | 0.9 | 2.6 | 0.00 | 0.00 | 0.00 | 79 | 1012.6 |
| 20260510165808 | 62 | 141 | 1.7 | 4.3 | 0.00 | 0.00 | 0.00 | 80 | 1012.5 |
| 20260510164807 | 62 | 143 | 0.9 | 2.6 | 0.00 | 0.00 | 0.00 | 81 | 1012.6 |
| 20260510164308 | 61 | 117 | 0.9 | 2.6 | 0.00 | 0.00 | 0.00 | 82 | 1012.6 |
| 20260510163807 | 60 | 104 | 1.7 | 2.6 | 0.00 | 0.00 | 0.00 | 82 | 1012.7 |
| 20260510163308 | 60 | 97 | 0.9 | 2.6 | 0.00 | 0.00 | 0.00 | 83 | 1012.7 |
| 20260510162807 | 59 | 87 | 1.7 | 2.6 | 0.00 | 0.00 | 0.00 | 83 | 1012.8 |
| 20260510161807 | 60 | 106 | 1.7 | 2.6 | 0.00 | 0.00 | 0.00 | 82 | 1012.8 |
| 20260510155808 | 59 | 142 | 1.7 | 2.6 | 0.00 | 0.00 | 0.00 | 86 | 1012.9 |
| 20260510155307 | 58 | 132 | 0.9 | 2.6 | 0.00 | 0.00 | 0.00 | 87 | 1012.8 |
| 20260510153307 | 59 | 152 | 3.5 | 6.1 | 0.00 | 0.00 | 0.00 | 84 | 1012.7 |
| 20260510152807 | 59 | 112 | 0.9 | 2.6 | 0.00 | 0.00 | 0.00 | 87 | 1012.7 |
| 20260510151307 | 57 | 62 | 1.7 | 4.3 | 0.00 | 0.00 | 0.00 | 90 | 1012.8 |
| 20260510150307 | 57 | 73 | 2.6 | 5.2 | 0.00 | 0.00 | 0.00 | 89 | 1012.8 |
| 20260510145807 | 58 | 85 | 1.7 | 4.3 | 0.00 | 0.00 | 0.00 | 90 | 1012.7 |
| 20260510144808 | 58 | 124 | 1.7 | 4.3 | 0.00 | 0.00 | 0.00 | 93 | 1012.7 |
| 20260510143307 | 57 | 101 | 1.7 | 2.6 | 0.00 | 0.00 | 0.00 | 95 | 1012.6 |
| 20260510141807 | 56 | 89 | 0.9 | 2.6 | 0.00 | 0.00 | 0.00 | 96 | 1012.7 |
| 20260510140307 | 56 | 339 | 4.3 | 5.2 | 0.00 | 0.00 | 0.00 | 96 | 1012.8 |
| 20260510135307 | 55 | 70 | 1.7 | 2.6 | 0.00 | 0.00 | 0.00 | 96 | 1012.6 |
| 20260510134308 | 55 | 1 | 2.6 | 5.2 | 0.00 | 0.00 | 0.00 | 96 | 1012.5 |
| 20260510133808 | 55 | 345 | 2.6 | 4.3 | 0.00 | 0.00 | 0.00 | 96 | 1012.5 |
| 20260510133307 | 54 | 324 | 0.9 | 2.6 | 0.00 | 0.00 | 0.00 | 96 | 1012.5 |
| 20260510131807 | 54 | 331 | 0.9 | 2.6 | 0.00 | 0.00 | 0.00 | 96 | 1012.5 |
| 20260510131307 | 54 | 346 | 1.7 | 2.6 | 0.00 | 0.00 | 0.00 | 96 | 1012.5 |
| 20260510125807 | 53 | 324 | 1.7 | 2.6 | 0.00 | 0.00 | 0.00 | 96 | 1012.5 |
| 20260510125307 | 53 | 11 | 1.7 | 2.6 | 0.00 | 0.00 | 0.00 | 96 | 1012.4 |
| 20260510124807 | 53 | 119 | 0.9 | 2.6 | 0.00 | 0.00 | 0.00 | 96 | 1012.5 |
| 20260510124307 | 54 | 300 | 0.9 | 2.6 | 0.00 | 0.00 | 0.00 | 96 | 1012.2 |
| 20260510123308 | 53 | 52 | 1.7 | 4.3 | 0.00 | 0.00 | 0.00 | 96 | 1011.9 |
| 20260510122807 | 53 | 46 | 1.7 | 2.6 | 0.00 | 0.00 | 0.00 | 96 | 1011.9 |
| 20260510122307 | 53 | 34 | 0.9 | 2.6 | 0.00 | 0.00 | 0.00 | 96 | 1011.8 |
| 20260510120807 | 53 | 5 | 4.3 | 7.8 | 0.00 | 0.00 | 0.00 | 96 | 1011.6 |
| 20260510120307 | 52 | 16 | 3.5 | 7.8 | 0.00 | 0.00 | 0.00 | 96 | 1011.7 |
| 20260510115808 | 52 | 47 | 4.3 | 7.0 | 0.00 | 0.00 | 0.00 | 96 | 1011.6 |
| 20260510112308 | 54 | 67 | 1.7 | 2.6 | 0.00 | 0.00 | 0.00 | 96 | 1011.5 |
| 20260510111808 | 54 | 345 | 1.7 | 2.6 | 0.00 | 0.00 | 0.00 | 96 | 1011.3 |
| 20260510111307 | 53 | 346 | 2.6 | 4.3 | 0.00 | 0.00 | 0.00 | 96 | 1011.3 |
| 20260510110808 | 53 | 24 | 2.6 | 5.2 | 0.00 | 0.00 | 0.00 | 96 | 1011.2 |
| 20260510105807 | 54 | 338 | 0.0 | 1.7 | 0.00 | 0.00 | 0.00 | 96 | 1010.9 |
| 20260510105307 | 53 | 338 | 0.9 | 4.3 | 0.00 | 0.00 | 0.00 | 96 | 1011.0 |
| 20260510104307 | 53 | 18 | 1.7 | 2.6 | 0.00 | 0.00 | 0.00 | 96 | 1011.1 |
| 20260510101808 | 52 | 141 | 0.9 | 1.7 | 0.00 | 0.00 | 0.00 | 96 | 1010.7 |
| 20260510101307 | 52 | 141 | 0.0 | 0.9 | 0.00 | 0.00 | 0.00 | 96 | 1010.6 |
| 20260510100808 | 52 | 141 | 0.0 | 0.9 | 0.00 | 0.00 | 0.00 | 95 | 1010.5 |
| 20260510100307 | 52 | 141 | 0.9 | 1.7 | 0.00 | 0.00 | 0.00 | 96 | 1010.4 |
| 20260510095307 | 52 | 141 | 0.0 | 0.0 | 0.00 | 0.00 | 0.00 | 96 | 1010.4 |
| 20260510094808 | 52 | 141 | 0.0 | 0.9 | 0.00 | 0.00 | 0.00 | 96 | 1010.4 |
| 20260510093807 | 52 | 121 | 0.9 | 2.6 | 0.00 | 0.00 | 0.00 | 96 | 1010.1 |
| 20260510093307 | 52 | 121 | 0.9 | 0.9 | 0.00 | 0.00 | 0.00 | 96 | 1009.9 |
| 20260510092808 | 52 | 121 | 0.0 | 1.7 | 0.00 | 0.00 | 0.00 | 96 | 1009.8 |
| 20260510092307 | 52 | 121 | 0.0 | 1.7 | 0.00 | 0.00 | 0.00 | 96 | 1009.8 |
| 20260510090307 | 52 | 126 | 0.9 | 2.6 | 0.00 | 0.00 | 0.00 | 96 | 1009.9 |
| 20260510085307 | 52 | 126 | 1.7 | 2.6 | 0.00 | 0.00 | 0.00 | 96 | 1009.9 |
| 20260510084807 | 52 | 126 | 0.9 | 2.6 | 0.00 | 0.00 | 0.00 | 96 | 1009.8 |
| 20260510084308 | 52 | 126 | 1.7 | 2.6 | 0.00 | 0.00 | 0.00 | 96 | 1009.9 |
| 20260510083807 | 52 | 126 | 1.7 | 2.6 | 0.00 | 0.00 | 0.00 | 96 | 1009.9 |
| 20260510081807 | 52 | 146 | 0.9 | 1.7 | 0.00 | 0.00 | 0.00 | 95 | 1009.7 |
| 20260510080308 | 52 | 146 | 0.9 | 1.7 | 0.00 | 0.00 | 0.00 | 95 | 1009.7 |
| 20260510075808 | 52 | 146 | 0.9 | 1.7 | 0.00 | 0.00 | 0.00 | 95 | 1009.6 |
| 20260510074807 | 52 | 146 | 0.9 | 1.7 | 0.00 | 0.00 | 0.00 | 95 | 1009.6 |
| 20260510073307 | 52 | 146 | 0.9 | 1.7 | 0.00 | 0.00 | 0.00 | 95 | 1009.7 |
| 20260510072809 | 53 | 146 | 0.9 | 2.6 | 0.00 | 0.00 | 0.00 | 95 | 1009.7 |
| 20260510072307 | 52 | 152 | 1.7 | 2.6 | 0.00 | 0.00 | 0.00 | 95 | 1009.7 |
| 20260510071807 | 52 | 146 | 1.7 | 2.6 | 0.00 | 0.00 | 0.00 | 95 | 1009.7 |
| 20260510071307 | 52 | 139 | 1.7 | 2.6 | 0.00 | 0.00 | 0.00 | 95 | 1009.8 |
| 20260510065307 | 52 | 139 | 0.9 | 2.6 | 0.00 | 0.00 | 0.00 | 95 | 1009.8 |
| 20260510062807 | 52 | 139 | 0.9 | 1.7 | 0.00 | 0.00 | 0.00 | 95 | 1009.8 |
| 20260510062307 | 52 | 139 | 0.0 | 0.9 | 0.00 | 0.00 | 0.00 | 95 | 1009.8 |
| 20260510061807 | 52 | 139 | 0.0 | 0.9 | 0.00 | 0.00 | 0.00 | 95 | 1009.9 |
| 20260510060807 | 52 | 139 | 1.7 | 2.6 | 0.00 | 0.00 | 0.00 | 95 | 1009.7 |
| 20260510055307 | 52 | 128 | 0.9 | 1.7 | 0.00 | 0.00 | 0.00 | 95 | 1009.9 |
| 20260510054807 | 52 | 127 | 0.9 | 2.6 | 0.00 | 0.00 | 0.00 | 95 | 1010.0 |
| 20260510054307 | 52 | 127 | 1.7 | 2.6 | 0.00 | 0.00 | 0.00 | 95 | 1010.0 |
| 20260510052807 | 52 | 127 | 0.9 | 1.7 | 0.00 | 0.00 | 0.00 | 95 | 1010.1 |
| 20260510052307 | 52 | 107 | 0.9 | 2.6 | 0.00 | 0.00 | 0.00 | 95 | 1010.2 |
| 20260510050307 | 52 | 96 | 0.0 | 0.9 | 0.00 | 0.00 | 0.00 | 95 | 1010.2 |
| 20260510044806 | 52 | 96 | 0.9 | 1.7 | 0.00 | 0.00 | 0.00 | 94 | 1010.3 |
| 20260510043807 | 52 | 68 | 0.0 | 0.9 | 0.00 | 0.00 | 0.00 | 94 | 1010.3 |
| 20260510043307 | 52 | 68 | 0.0 | 0.9 | 0.00 | 0.00 | 0.00 | 94 | 1010.3 |
| 20260510042807 | 52 | 68 | 0.0 | 0.9 | 0.00 | 0.00 | 0.00 | 94 | 1010.3 |
| 20260510042307 | 52 | 68 | 0.0 | 0.9 | 0.00 | 0.00 | 0.00 | 94 | 1010.4 |
| 20260510040839 | 52 | 69 | 0.9 | 1.7 | 0.00 | 0.00 | 0.00 | 94 | 1010.2 |
| 20260510040307 | 52 | 66 | 0.0 | 0.0 | 0.00 | 0.00 | 0.00 | 94 | 1010.2 |
| 20260510035807 | 52 | 66 | 0.0 | 0.9 | 0.00 | 0.00 | 0.00 | 94 | 1010.2 |
| 20260510034807 | 52 | 66 | 0.0 | 0.9 | 0.00 | 0.00 | 0.00 | 94 | 1010.2 |
| 20260510032307 | 53 | 66 | 0.0 | 1.7 | 0.00 | 0.00 | 0.00 | 94 | 1010.0 |
| 20260510031807 | 53 | 66 | 0.9 | 1.7 | 0.00 | 0.00 | 0.00 | 94 | 1009.8 |
| 20260510022807 | 54 | 66 | 0.9 | 1.7 | 0.00 | 0.00 | 0.00 | 93 | 1009.9 |
| 20260510022307 | 54 | 66 | 0.9 | 1.7 | 0.00 | 0.00 | 0.00 | 93 | 1010.0 |
| 20260510020307 | 54 | 57 | 1.7 | 2.6 | 0.00 | 0.00 | 0.00 | 93 | 1010.0 |
| 20260510015308 | 54 | 57 | 1.7 | 2.6 | 0.00 | 0.00 | 0.00 | 93 | 1009.9 |
| 20260510013307 | 54 | 58 | 1.7 | 2.6 | 0.00 | 0.00 | 0.00 | 92 | 1009.8 |
| 20260510011807 | 54 | 65 | 1.7 | 2.6 | 0.00 | 0.00 | 0.00 | 92 | 1009.8 |
| 20260510010806 | 54 | 51 | 0.9 | 2.6 | 0.00 | 0.00 | 0.00 | 92 | 1009.7 |
| 20260510005807 | 54 | 18 | 1.7 | 2.6 | 0.00 | 0.00 | 0.00 | 92 | 1009.7 |
| 20260510004807 | 54 | 44 | 1.7 | 2.6 | 0.00 | 0.00 | 0.00 | 91 | 1009.7 |
| 20260510003807 | 55 | 32 | 0.9 | 2.6 | 0.00 | 0.00 | 0.00 | 91 | 1009.6 |
| 20260510002307 | 54 | 55 | 0.9 | 2.6 | 0.00 | 0.00 | 0.00 | 91 | 1009.5 |
| 20260510001807 | 54 | 57 | 0.9 | 2.6 | 0.00 | 0.00 | 0.00 | 91 | 1009.5 |
| 20260509235307 | 55 | 58 | 2.6 | 2.6 | 0.00 | 0.00 | 0.00 | 90 | 1009.4 |
| 20260509234807 | 55 | 62 | 1.7 | 5.2 | 0.00 | 0.00 | 0.00 | 90 | 1009.3 |
| 20260509234307 | 55 | 49 | 1.7 | 4.3 | 0.00 | 0.00 | 0.00 | 89 | 1009.3 |
| 20260509233807 | 56 | 67 | 2.6 | 6.1 | 0.00 | 0.00 | 0.00 | 89 | 1009.2 |
| 20260509232807 | 56 | 78 | 2.6 | 2.6 | 0.00 | 0.00 | 0.00 | 87 | 1009.0 |
| 20260509230307 | 61 | 29 | 4.3 | 7.0 | 0.00 | 0.00 | 0.00 | 87 | 1009.2 |
| 20260509225807 | 62 | 25 | 5.2 | 10.4 | 0.00 | 0.00 | 0.00 | 87 | 1009.2 |
| 20260509225306 | 62 | 9 | 4.3 | 10.4 | 0.00 | 0.00 | 0.00 | 87 | 1009.2 |
| 20260509224307 | 61 | 17 | 4.3 | 6.1 | 0.00 | 0.00 | 0.00 | 87 | 1009.3 |
| 20260509223306 | 61 | 348 | 2.6 | 4.3 | 0.00 | 0.00 | 0.00 | 88 | 1009.4 |
| 20260509222807 | 61 | 343 | 0.9 | 2.6 | 0.00 | 0.00 | 0.00 | 89 | 1009.2 |
| 20260509214307 | 56 | 181 | 4.3 | 7.0 | 0.00 | 0.00 | 0.00 | 91 | 1008.6 |
| 20260509213806 | 56 | 176 | 3.5 | 6.1 | 0.00 | 0.00 | 0.00 | 91 | 1008.5 |
| 20260509212306 | 56 | 184 | 4.3 | 7.8 | 0.00 | 0.00 | 0.00 | 90 | 1008.7 |
| 20260509211806 | 56 | 172 | 5.2 | 8.7 | 0.00 | 0.00 | 0.00 | 90 | 1008.8 |
| 20260509205308 | 57 | 197 | 4.3 | 10.4 | 0.00 | 0.00 | 0.00 | 90 | 1009.0 |
| 20260509204806 | 57 | 185 | 5.2 | 8.7 | 0.00 | 0.00 | 0.00 | 90 | 1009.0 |
| 20260509203806 | 57 | 181 | 6.1 | 10.4 | 0.00 | 0.00 | 0.00 | 91 | 1009.1 |
| 20260509200807 | 56 | 174 | 7.8 | 10.4 | 0.00 | 0.00 | 0.00 | 92 | 1009.1 |
| 20260509200307 | 56 | 161 | 5.2 | 10.4 | 0.00 | 0.00 | 0.00 | 92 | 1009.2 |
| 20260509195807 | 56 | 173 | 4.3 | 7.8 | 0.00 | 0.00 | 0.00 | 92 | 1009.1 |
| 20260509195307 | 55 | 186 | 5.2 | 10.4 | 0.00 | 0.00 | 0.00 | 93 | 1009.2 |
| 20260509194806 | 55 | 182 | 7.0 | 10.4 | 0.00 | 0.00 | 0.00 | 92 | 1009.2 |
| 20260509194307 | 55 | 171 | 7.8 | 12.2 | 0.00 | 0.00 | 0.00 | 92 | 1009.2 |
| 20260509193807 | 55 | 189 | 5.2 | 13.0 | 0.00 | 0.00 | 0.00 | 92 | 1009.4 |
| 20260509193306 | 55 | 186 | 8.7 | 13.9 | 0.00 | 0.00 | 0.00 | 92 | 1009.6 |